Location: Abraham Lincoln Continuation High School
(33.9711°N, 117.3662°W)
Time: 04:18:10
(UTC+00:00)

Meteor 1-17 Rocket - Pass Details

Date: 21 September 2020
Orbit: 830 x 912 km, 81.2° (Epoch: 25 October)

Event Time Altitude Azimuth Distance (km) Brightness Sun altitude
Rises 11:22:44 0° 350° (N) 3,378 8.0 -28.1°
Reaches altitude 10° 11:25:08 10° 350° (N) 2,440 7.2 -27.6°
Maximum altitude 11:30:39 83° 264° (W) 843 4.5 -26.5°
Enters shadow 11:31:22 68° 191° (S) 895 4.6 -26.4°
